Location: College Park
(38.9810°N, 76.9370°W)
Time: 13:46:00
(UTC-04:00)

Vanguard 1 Rocket - Visible Passes

Search period start: 17 July 2018 00:00
Search period end: 27 July 2018 00:00
Orbit: 652 x 4225 km, 34.3° (Epoch: 16 July)

Date Brightness Start Highest point End Pass type
(mag) Time Alt. Az. Time Alt. Az. Time Alt. Az.
17 Jul 11.9 05:31:25 10° SSE 05:40:19 13° SE 05:48:11 10° ESE visible
19 Jul 11.8 05:28:06 10° S 05:42:56 19° SE 05:55:13 10° ESE visible
20 Jul 11.9 04:27:11 10° SE 04:29:24 10° SE 04:31:33 10° SE visible
21 Jul 11.6 05:27:00 10° S 05:45:24 25° SE 06:00:15 10° E visible
22 Jul 11.7 04:19:18 10° SSE 04:31:49 16° SE 04:43:15 10° ESE visible
23 Jul 11.5 05:26:57 10° SSW 05:47:45 32° SE 06:04:26 10° E visible
24 Jul 11.6 04:17:23 10° S 04:34:03 22° SE 04:49:09 10° E visible
25 Jul 11.7 03:13:34 10° SE 03:20:43 12° SE 03:27:47 10° ESE visible
25 Jul 11.3 05:27:34 10° SSW 05:50:01 39° SE 06:08:08 10° E visible
26 Jul 11.5 04:16:58 10° S 04:36:09 28° SE 04:53:43 10° E visible
